{"data":{"norad_id":56009,"epoch":"2026-09-20T19:57:14.961024Z","epoch_age_seconds":77432,"freshness":"FRESH","line1":"1 56009U 23042Z   26263.83142316  .00000014  00000+0  10027-4 0  9996","line2":"2 56009  43.0055  40.9753 0001551 269.6687  90.3986 15.27576383192670","mean_motion":15.27576383,"eccentricity":0.0001551,"inclination_deg":43.0055,"raan_deg":40.9753,"arg_perigee_deg":269.6687,"mean_anomaly_deg":90.3986,"bstar":1.0027e-5,"rev_number":19267,"period_min":94.266971918746,"perigee_km":481.99575501691,"apogee_km":484.12409830356,"semimajor_km":6861.1969266602,"source":"CELESTRAK","updated_at":"2026-09-21T09:00:33.353901Z"}}